Cut Bank, MT

5:50 PM MST on November 20, 2019 (GMT -0700)
Cut Bank Municipal

Weather History for KCTB - September, 2019

Change the Weather History Date:

Thursday, September 12, 2019

  Actual Average Record
Temperature  
Mean Temperature 54 °F 55 °F  
Max Temperature 71 °F 69 °F 88 °F (1953)
Min Temperature 38 °F 41 °F 20 °F (1949)
Degree Days  
Heating Degree Days 10 10  
Month to date heating degree days 86 102  
Since 1 July heating degree days 259 296  
Cooling Degree Days 0 0  
Month to date cooling degree days 1 6  
Year to date cooling degree days 105 159  
Growing Degree Days 4 (Base 50)    
Moisture  
Dew Point 38 °F    
Average Humidity 56    
Maximum Humidity 89    
Minimum Humidity 26    
Precipitation  
Precipitation 0.00 in 0.05 in 1.36 in (1985)
Month to date precipitation 0.49 0.54  
Year to date precipitation 9.32 9.20  
Snow  
Snow - - - ()
Snow Depth 0.00 in    
Sea Level Pressure  
Sea Level Pressure 30.16 in    
Wind  
Wind Speed 7 mph ()    
Max Wind Speed 23 mph    
Max Gust Speed 31 mph    
Visibility 10.0 miles    
Events      
T = Trace of Precipitation, MM = Missing Value Source: Averaged Metar Reports

Daily Weather History Graph

Daily Weather History Graph

Search for Another Location

Airport or City:

Astronomy

Sep. 12, 2019 Rise Set
Actual Time 7:01 AM MDT 7:48 PM MDT
Civil Twilight 6:30 AM MDT 8:20 PM MDT
Nautical Twilight 5:52 AM MDT 8:58 PM MDT
Astronomical Twilight 5:11 AM MDT 9:38 PM MDT
Moon 7:45 PM MDT (9/12) 5:11 AM MDT (9/12)
Length of Visible Light 13h 50m
Length of Day
12h 46m
Waxing Gibbous, 98% of the Moon is Illuminated
Sep 12
Waxing Gibbous
Sep 13
Full
Sep 21
Last Quarter
Sep 28
New
Oct 5
First Quarter

Hourly Weather History & Observations

Time (MDT) Temp. Windchill Dew Point Humidity Pressure Visibility Wind Dir Wind Speed Gust Speed Precip Events Conditions
12:56 AM 44.1 °F 42.5 °F 37.0 °F 76% 30.20 in 10.0 mi NE 3.5 mph - N/A   Clear
1:56 AM 39.9 °F 37.8 °F 36.0 °F 86% 30.20 in 10.0 mi WSW 3.5 mph - N/A   Clear
2:56 AM 39.9 °F 35.8 °F 36.0 °F 86% 30.20 in 10.0 mi NW 5.8 mph - N/A   Clear
3:56 AM 41.0 °F 37.1 °F 37.0 °F 86% 30.20 in 10.0 mi West 5.8 mph - N/A   Clear
4:56 AM 39.9 °F 36.7 °F 37.0 °F 89% 30.21 in 10.0 mi NNW 4.6 mph - N/A   Clear
5:56 AM 42.1 °F 40.2 °F 37.9 °F 85% 30.20 in 10.0 mi NNW 3.5 mph - N/A   Clear
6:56 AM 39.9 °F 35.8 °F 36.0 °F 86% 30.21 in 10.0 mi NNW 5.8 mph - N/A   Clear
7:56 AM 44.1 °F 42.5 °F 39.9 °F 85% 30.22 in 10.0 mi WNW 3.5 mph - N/A   Clear
8:56 AM 52.0 °F - 45.0 °F 77% 30.21 in 10.0 mi WNW 3.5 mph - N/A   Clear
9:56 AM 60.1 °F - 46.0 °F 60% 30.20 in 10.0 mi SSW 4.6 mph - N/A   Clear
10:56 AM 64.9 °F - 37.9 °F 37% 30.19 in 10.0 mi West 12.7 mph - N/A   Clear
11:56 AM 66.0 °F - 37.0 °F 34% 30.18 in 10.0 mi Variable 6.9 mph - N/A   Partly Cloudy
12:56 PM 70.0 °F - 36.0 °F 29% 30.16 in 10.0 mi SW 8.1 mph - N/A   Partly Cloudy
1:56 PM 69.1 °F - 36.0 °F 30% 30.16 in 10.0 mi WSW 12.7 mph 24.2 mph N/A   Clear
2:56 PM 70.0 °F - 34.0 °F 27% 30.15 in 10.0 mi WSW 11.5 mph - N/A   Partly Cloudy
3:56 PM 70.0 °F - 33.1 °F 26% 30.13 in 10.0 mi WNW 12.7 mph - N/A   Clear
4:56 PM 70.0 °F - 35.1 °F 28% 30.13 in 10.0 mi WSW 13.8 mph 20.7 mph N/A   Clear
5:56 PM 69.1 °F - 35.1 °F 29% 30.11 in 10.0 mi West 13.8 mph - N/A   Clear
6:56 PM 64.0 °F - 37.0 °F 37% 30.13 in 10.0 mi WSW 15.0 mph 24.2 mph N/A   Clear
7:56 PM 59.0 °F - 39.0 °F 48% 30.13 in 10.0 mi WSW 11.5 mph - N/A   Clear
8:56 PM 59.0 °F - 39.9 °F 49% 30.11 in 10.0 mi WSW 12.7 mph - N/A   Clear
9:56 PM 57.9 °F - 39.9 °F 51% 30.07 in 10.0 mi West 15.0 mph - N/A   Clear
10:56 PM 55.0 °F - 39.9 °F 57% 30.06 in 10.0 mi WSW 11.5 mph - N/A   Clear
11:56 PM 55.9 °F - 39.9 °F 55% 30.04 in 10.0 mi WSW 11.5 mph - N/A   Clear